Location: *
(49.9853°N, 3.5569°E)
Time: 06:11:42
(UTC+00:00)

Cosmos 2082 Rocket - Pass Details

Date: 22 September 2019
Orbit: 831 x 855 km, 71.0° (Epoch: 16 October)

Event Time Altitude Azimuth Distance (km) Brightness Sun altitude
Rises 21:28:34 0° 331° (NNW) 3,436 6.4 -32.7°
Reaches altitude 10° 21:32:20 10° 356° (N) 2,499 5.2 -33.1°
Maximum altitude 21:35:22 14° 28° (NNE) 2,199 4.6 -33.4°
Enters shadow 21:36:20 14° 39° (NE) 2,230 4.5 -33.5°
